Tracking 27107 objects as of 21-Mar-2023
HD Live streaming from Space Station
objects crossing your sky now

COSMOS 2491 DEB

Track COSMOS 2491 DEB now!
10-day predictions


NORAD ID: 45128
Int'l Code: 2013-076Z
Perigee: 797.5 km
Apogee: 842.1 km
Inclination: 81.2 °
Period: 101.1 minutes
Semi major axis: 7190 km
RCS: Unknown
Launch date: December 25, 2013
Source: Commonwealth of Independent States (former USSR) (CIS)
Launch site: PLESETSK MISSILE AND SPACE COMPLEX (PKMTR)

Note: This is SATELLITE DEBRIS
Your satellite tracking list
Your tracking list is empty




NASA's NSSDC Master Catalog

Two Line Element Set (TLE):
1 45128U 13076AA  23076.83476257  .00003538  00000-0  15355-2 0  9997
2 45128  81.2128 124.3210 0030964 129.1070 231.2869 14.23760478162539
Source of the keplerian elements: AFSPC